Regional Weather Roundup
Issued by NWS

Home | Current Version | Previous Version | Graphics & Text | Print | Product List | Glossary Off
Versions: 1 2 3 4 5 6 7 8 9 10 11 12 13 14 15 16 17 18 19 20 21 22 23 24 25 26 27 28 29 30 31 32 33 34 35 36 37 38 39 40 41 42 43 44 45 46 47 48 49 50

000
ASUS43 KTOP 182308
RWRKS

WEATHER ROUNDUP FOR KANSAS
NATIONAL WEATHER SERVICE GOODLAND KS
500 PM CST THU JAN 18 2018

NOTE:  "FAIR" INDICATES FEW OR NO CLOUDS BELOW 12,000 FEET WITH NO
SIGNIFICANT WEATHER AND/OR OBSTRUCTIONS TO VISIBILITY.

KSZ001>006-013>018-027>032-041>047-190000-
NORTHWEST KANSAS

CITY           SKY/WX    TMP DP  RH WIND       PRES   REMARKS
GOODLAND       CLOUDY    53  14  21 S7        29.95S
HAYS           CLOUDY    56  18  22 S8        29.97S
HILL CITY      CLOUDY    59  17  19 SW6       29.94S
RUSSELL        CLOUDY    55  25  31 S9        29.96S
$$

KSZ061>065-074>080-084>089-190000-
SOUTHWEST KANSAS

CITY           SKY/WX    TMP DP  RH WIND       PRES   REMARKS
DODGE CITY     CLOUDY    55  16  21 S13       30.01S
ELKHART        PTCLDY    63  15  15 S9        30.00F
GARDEN CITY    CLOUDY    57   9  14 S8        29.99S
GREAT BEND     CLOUDY    52  19  27 S13       30.00S
LIBERAL        CLOUDY    59  10  14 S8        30.02F
PRATT          CLOUDY    52  13  21 SW9       30.04S
$$

KSZ066>073-081>083-090>101-190000-
SOUTHEAST KANSAS

CITY           SKY/WX    TMP DP  RH WIND       PRES   REMARKS
CHANUTE        CLOUDY    40  23  50 S8        30.14S
COFFEYVILLE    CLEAR     45  18  34 S14       30.17S
HUTCHINSON     CLOUDY    48  19  31 S10       30.03F
MEDICINE LODGE   N/A     53  20  27 S9        30.05S
NEWTON         CLOUDY    46  23  40 S15       30.06F
PARSONS        CLEAR     43  20  39 S6        30.16R
WICHITA INTL   CLOUDY    50  23  34 S15G23    30.07F
WICHITA JABRA  CLOUDY    47  21  35 S16       30.07F
WICHITA MCCONL CLOUDY    47  20  33 SW14      30.08F
WINFIELD       CLOUDY    47  17  30 S15       30.13F
$$

KSZ007>012-019>026-033>040-048>060-102>105-190000-
NORTHEAST KANSAS

CITY           SKY/WX    TMP DP  RH WIND       PRES   REMARKS
CONCORDIA      CLOUDY    42  28  57 S15       29.96F
EMPORIA        CLOUDY    44  23  43 S14       30.07F
LAWRENCE       CLOUDY    36  24  62 SE8       30.09F
MANHATTAN      CLOUDY    44  24  45 SW13      30.03S
MARYSVILLE     CLOUDY    36  27  69 S8        29.99F
OLATHE IND     CLOUDY    36  22  56 S13       30.10F WCI  27
OLATHE EXE     CLOUDY    35  21  56 S12       30.09F WCI  27
SALINA         CLOUDY    44  27  51 S10       30.01F
TOPEKA BILLARD CLOUDY    42  25  50 S9        30.06F
TOPEKA FORBES  CLOUDY    42  25  50 S10       30.05F
$$




USA.gov is the U.S. government's official web portal to all federal, state and local government web resources and services.